COSMOS 619

Satellite information

Favourite Embed

Satellite Type and Status

PAYLOADIN ORBIT

Key statistics

Satellite COSMOS 619 at a glance.

Uptime

18891

Days in orbit

Revolutions

≈ 12.5

Per day

Orbit

LEO

Low Earth Orbit

Inclination

74.0

Latest

Satellite identification and parameters

Extended collection of information and parameters for COSMOS 619.

Object identification

Identified? True

Debris? False

Object name: COSMOS 619

International designator: 1973-104C

Object number (NORAD): 6987

Object ID (CCSDS): 6987

Country: COMMONWEALTH OF INDEPENDENT STATES (CIS)

Current information (Y/N): Y

RCS size: MEDIUM

Orbital parameters

Period: 114.995 minutes

Inclination: 74.0261 deg

SMA: 7833.327 km

Apoapsis: 1486.559 km

Periapsis: 1423.824 km

RAAN: 239.9257 deg

Eccentricy: 0.00400435

Argument of periapsis: 55.1885 deg

Mean anomaly: 305.2925 deg

Mean motion: 12.52228005 rev/day

Mean motion (dot): -0.00000018 rev/day2

B* drag term: -0.000013707461 1/REarth

Two-line elements (TLE)

Creation date: Sept. 8, 2025, 3:16 a.m.

Reference frame: TEME

Reference center: EARTH

Epoch: Sept. 7, 2025, 5:30 p.m. UTC

TLE line 0: 0 COSMOS 619

TLE line 1: 1 06987U 73104C 25250.72946393 -.00000018 00000-0 -13707-4 0 9995

TLE line 2: 2 06987 74.0261 239.9257 0040043 55.1885 305.2925 12.52228005364233

Live tracking on map

Real-time ground track for satellite COSMOS 619.

In-orbit conjunctions

There are no conjunctions computed for COSMOS 619, at the moment. Check back to stay up to date, as we update our databases every day.

Go to all conjunctions

Associated space launch

Military communications satellites

COSMOS 619 was lifted into orbit during the mission ‘Kosmos-3M | Strela-1M 57-64’, on board a Kosmos-3M space rocket.

The launch took place on Dec. 19, 1973, 9:43 a.m. from 132/2.

For more information about the launch, click the button.

Launch to space Kosmos-3M | Strela-1M 57-64
Kosmos-3M | Strela-1M 57-64

Agency: N/A

Status: Launch Successful

Launch date: Dec. 19, 1973, 9:43 a.m. UTC

Rocket: Kosmos-3M

Launch pad: 132/2

Location: Plesetsk Cosmodrome, Russian Federation

...

Latest news about this satellite

There are no fresh news available about this satellite. Check back as we update our databases every day.


Newsletter sign-up

Weekly statistics, charts and insights to help you stay on top of the space industry.